Zurück zum Katalog

SL-16 DEB

AktivLEO
NORAD 22409·DEBRIS·🇷🇺 Russia

Gestartet Dec 25, 1992 von Baikonur Cosmodrome

Loading…

Nächste Überflüge (nächste 24 Stunden)

TLE

AktuellSource: Space-Track

Epoche: Sep 14, 2026, 04:12 UTC

1 22409U 92093DA  26257.17516806  .00000618  00000-0  12415-3 0  9997
2 22409  71.1319 319.3675 0114794 178.5814 213.2956 14.61881540761746

Verfolge SL-16 DEB in Echtzeit mit AllMySat

Download on the App Store